sat.trackr.live / text

‹ back to catalog

STARLINK-35527

NORAD 66092 · 2025-236G

PAYLOAD ACTIVE UNKNOWN

§ Identity

Operator
Country
US
Launch date
2025-10-19
Launch site
AFWTR
Launch vehicle
Mass (kg)
RCS (m²)

Purposes: comms

External: N2YO · Heavens-Above · Gunter

§ Orbital elements

Epoch: 2026-09-20T05:58:46.979040Z

Period
93.85 min
Inclination
53.1570°
Eccentricity
0.0000822
Mean motion
15.34410115 rev/d
Perigee alt
462.1 km
Apogee alt
463.2 km
Semi-major
6,840.8 km
B*
4.3583e-4
RAAN
276.5386°
Arg perigee
75.6351°
Mean anomaly
284.4743°
Rev number
5,278

§ Raw data

STARLINK-355271 66092U 25236G   26263.24915485  .00014382  00000+0  43583-3 0  99912 66092  53.1570 276.5386 0000822  75.6351 284.4743 15.34410115 52781

JSON: /api/v1/satellites/66092 · /tle

For live sub-satellite position, see the globe view (requires WebGL).

§ Visibility from observer

Set your observer location to see the next 7 days of passes ≥ 10°. The values pass through the URL so the page stays shareable.

No JS? Fill the form by hand. The geolocation button needs JavaScript.